Kitsissorsuit

KL  EN  DA
ASIAQ
Weather Now GREENLAND SURVEY
Updated [WGT/WGST] Temperature [°C] Wind [m/s] Air pressure [hPa] Relative humidity [%] Precipitation [mm]
Present Wind chill Speed Max
18.04 01:00-14,7-26,19,3 ⇐10,3101383n/a
18.04 00:00-13,9-24,27,7 ⇐8,8101385n/a
17.04 23:00-13,7-23,36,7 ⇐7,7101382n/a
17.04 22:00-13,7-23,06,2 ⇐7,7101382n/a
17.04 21:00-13,4-22,96,7 ⇖8,8101278n/a
17.04 20:00n/an/an/an/an/an/an/a
17.04 19:00-13,3-23,47,7 ⇖9,3101178n/a
17.04 18:00-13,5-24,08,2 ⇖9,3101177n/a
17.04 17:00-13,6-23,87,7 ⇖9,3101072n/a
17.04 16:00-13,7-24,28,2 ⇖9,8100978n/a
17.04 15:00-14,1-24,88,2 ⇐9,8100979n/a
17.04 14:00-14,3-25,08,2 ⇖9,8100979n/a
17.04 13:00-14,7-24,97,2 ⇖8,2100979n/a
17.04 12:00-15,1-25,87,7 ⇖9,3100874n/a
17.04 11:00-14,9-24,96,7 ⇖7,7100870n/a
17.04 10:00-15,7-25,15,7 ⇖6,7100778n/a
17.04 09:00-16,9-28,17,7 ⇐8,2100779n/a
17.04 08:00-16,9-28,17,7 ⇐8,8100779n/a
17.04 07:00-17,6-28,36,7 ⇐7,7100678n/a
17.04 06:00-18,0-29,27,2 ⇐8,8100679n/a
17.04 05:00-17,3-28,37,2 ⇐8,2100679n/a
17.04 04:00-17,7-28,16,2 ⇐7,7100680n/a
17.04 03:00-17,9-28,36,2 ⇐7,2100579n/a
17.04 02:00-18,2-29,16,7 ⇐7,7100578n/a
17.04 01:00-17,7-28,16,2 ⇐7,2100580n/a
Position: (74.0605555555,-57.723055555555)

[Back]